T40 EFKU-EFHK

Flight info

Callsign T40
Flight time 0h 58m
Altitude 26000
Route ASTUX DCT NAPRU T83 LUSEP
Aircraft PC12/L-SDFGRWY/S

Departure

Time 2026-04-26 07:07
Airport Kuopio Airport (EFKU)

Arrival

Time 2026-04-26 08:06
Airport Helsinki Vantaa Airport (EFHK)
Time Latitude Longitude Altitude Speed Heading
2026-04-26 06:55 63.00314 27.79147 314 ft 0 kts 66°
2026-04-26 07:04 63.00325 27.79172 314 ft 7 kts 19°
2026-04-26 07:04 63.00371 27.79231 315 ft 12 kts 68°
2026-04-26 07:04 63.00386 27.79422 314 ft 16 kts 17°
2026-04-26 07:05 63.00474 27.79496 312 ft 18 kts 54°
2026-04-26 07:05 63.00572 27.79457 316 ft 13 kts 339°
2026-04-26 07:05 63.00647 27.79449 318 ft 11 kts 37°
2026-04-26 07:05 63.00694 27.79630 317 ft 16 kts 65°
2026-04-26 07:06 63.00769 27.79718 320 ft 12 kts 346°
2026-04-26 07:06 63.00796 27.79700 321 ft 0 kts 335°
2026-04-26 07:06 63.00893 27.79608 325 ft 39 kts 338°
2026-04-26 07:07 63.01308 27.79218 345 ft 84 kts 342°
2026-04-26 07:07 63.01898 27.78662 568 ft 102 kts 343°
2026-04-26 07:07 63.02628 27.78044 844 ft 129 kts 337°
2026-04-26 07:07 63.03485 27.77175 1339 ft 142 kts 341°
2026-04-26 07:08 63.04437 27.76339 1832 ft 152 kts 340°
2026-04-26 07:08 63.05412 27.75441 2479 ft 150 kts 341°
2026-04-26 07:08 63.06346 27.74563 3222 ft 144 kts 342°
2026-04-26 07:08 63.07285 27.73636 3756 ft 153 kts 341°
2026-04-26 07:09 63.08259 27.72576 4310 ft 156 kts 339°
2026-04-26 07:09 63.09204 27.71429 4955 ft 155 kts 337°
2026-04-26 07:09 63.10134 27.70074 5447 ft 167 kts 329°
2026-04-26 07:09 63.10948 27.68134 5938 ft 180 kts 310°
2026-04-26 07:10 63.09855 27.61226 6605 ft 244 kts 189°
2026-04-26 07:11 63.07263 27.65086 7034 ft 227 kts 130°
2026-04-26 07:11 63.05909 27.66867 7464 ft 233 kts 159°
2026-04-26 07:11 63.04274 27.67090 7835 ft 239 kts 187°
2026-04-26 07:11 63.02631 27.66397 8197 ft 241 kts 191°
2026-04-26 07:12 63.00994 27.65609 8597 ft 241 kts 191°
2026-04-26 07:12 62.99346 27.64841 8968 ft 243 kts 191°
2026-04-26 07:12 62.97688 27.64098 9363 ft 243 kts 191°
2026-04-26 07:12 62.96024 27.63352 9714 ft 245 kts 191°
2026-04-26 07:13 62.94351 27.62596 10071 ft 245 kts 191°
2026-04-26 07:13 62.92676 27.61841 10418 ft 246 kts 191°
2026-04-26 07:13 62.90995 27.61085 10760 ft 247 kts 191°
2026-04-26 07:13 62.89306 27.60328 11102 ft 248 kts 191°
2026-04-26 07:14 62.87634 27.59577 11435 ft 249 kts 191°
2026-04-26 07:14 62.85916 27.58807 11808 ft 248 kts 191°
2026-04-26 07:14 62.84243 27.58058 12156 ft 249 kts 191°
2026-04-26 07:14 62.82552 27.57301 12515 ft 248 kts 191°
2026-04-26 07:15 62.80863 27.56547 12869 ft 248 kts 191°
2026-04-26 07:15 62.79168 27.55791 13222 ft 248 kts 192°
2026-04-26 07:15 62.77475 27.55037 13548 ft 248 kts 192°
2026-04-26 07:15 62.75780 27.54338 13849 ft 248 kts 188°
2026-04-26 07:16 62.74073 27.53831 14140 ft 247 kts 186°
2026-04-26 07:16 62.72359 27.53595 14395 ft 247 kts 187°
2026-04-26 07:16 62.70683 27.52793 14700 ft 246 kts 195°
2026-04-26 07:16 62.69034 27.51784 15002 ft 246 kts 195°
2026-04-26 07:17 62.67372 27.50934 15305 ft 245 kts 192°
2026-04-26 07:17 62.65701 27.50178 15589 ft 245 kts 192°
2026-04-26 07:17 62.64033 27.49400 15879 ft 245 kts 193°
2026-04-26 07:17 62.62370 27.48600 16174 ft 244 kts 193°
2026-04-26 07:18 62.60713 27.47805 16454 ft 244 kts 193°
2026-04-26 07:18 62.59054 27.47016 16725 ft 244 kts 192°
2026-04-26 07:18 62.57393 27.46228 16987 ft 244 kts 193°
2026-04-26 07:18 62.55753 27.45325 17218 ft 244 kts 201°
2026-04-26 07:19 62.54294 27.43444 17435 ft 245 kts 213°
2026-04-26 07:19 62.52887 27.41368 17699 ft 244 kts 214°
2026-04-26 07:19 62.51481 27.39300 17932 ft 245 kts 213°
2026-04-26 07:19 62.50064 27.37248 18126 ft 245 kts 213°
2026-04-26 07:20 62.48642 27.35197 18321 ft 246 kts 212°
2026-04-26 07:20 62.47217 27.33140 18510 ft 247 kts 213°
2026-04-26 07:20 62.45789 27.31077 18698 ft 247 kts 212°
2026-04-26 07:20 62.44359 27.29016 18883 ft 248 kts 213°
2026-04-26 07:21 62.42924 27.26950 19071 ft 248 kts 212°
2026-04-26 07:21 62.41487 27.24883 19231 ft 249 kts 212°
2026-04-26 07:21 62.40044 27.22811 19406 ft 249 kts 212°
2026-04-26 07:21 62.38599 27.20738 19582 ft 250 kts 212°
2026-04-26 07:22 62.37151 27.18661 19742 ft 250 kts 213°
2026-04-26 07:22 62.35698 27.16575 19899 ft 251 kts 212°
2026-04-26 07:22 62.34244 27.14488 20054 ft 252 kts 212°
2026-04-26 07:22 62.32808 27.12426 20208 ft 252 kts 212°
2026-04-26 07:23 62.31351 27.10334 20360 ft 252 kts 212°
2026-04-26 07:23 62.29890 27.08234 20501 ft 253 kts 212°
2026-04-26 07:23 62.28427 27.06131 20645 ft 253 kts 212°
2026-04-26 07:23 62.26960 27.04023 20782 ft 254 kts 212°
2026-04-26 07:24 62.25492 27.01915 20917 ft 254 kts 212°
2026-04-26 07:24 62.24024 26.99803 21050 ft 254 kts 212°
2026-04-26 07:24 62.22553 26.97687 21174 ft 255 kts 212°
2026-04-26 07:24 62.21080 26.95565 21303 ft 255 kts 212°
2026-04-26 07:25 62.19604 26.93440 21428 ft 256 kts 212°
2026-04-26 07:25 62.18125 26.91313 21543 ft 256 kts 212°
2026-04-26 07:25 62.16643 26.89182 21654 ft 257 kts 212°
2026-04-26 07:25 62.15162 26.87050 21771 ft 257 kts 212°
2026-04-26 07:26 62.13674 26.84910 21875 ft 258 kts 212°
2026-04-26 07:26 62.12184 26.82765 21992 ft 258 kts 212°
2026-04-26 07:26 62.10693 26.80618 22103 ft 258 kts 212°
2026-04-26 07:26 62.09201 26.78470 22201 ft 259 kts 212°
2026-04-26 07:27 62.07705 26.76315 22301 ft 260 kts 212°
2026-04-26 07:27 62.06207 26.74159 22405 ft 260 kts 212°
2026-04-26 07:27 62.04707 26.71999 22500 ft 260 kts 212°
2026-04-26 07:27 62.03205 26.69837 22591 ft 261 kts 212°
2026-04-26 07:28 62.01702 26.67671 22670 ft 261 kts 212°
2026-04-26 07:28 62.00195 26.65502 22768 ft 262 kts 212°
2026-04-26 07:28 61.98684 26.63324 22853 ft 262 kts 212°
2026-04-26 07:28 61.97173 26.61146 22944 ft 263 kts 212°
2026-04-26 07:29 61.95659 26.58960 23027 ft 263 kts 212°
2026-04-26 07:29 61.94143 26.56771 23111 ft 264 kts 212°
2026-04-26 07:29 61.92623 26.54575 23172 ft 264 kts 212°
2026-04-26 07:29 61.91102 26.52376 23241 ft 265 kts 212°
2026-04-26 07:30 61.89576 26.50171 23304 ft 266 kts 212°
2026-04-26 07:30 61.88045 26.47959 23349 ft 267 kts 213°
2026-04-26 07:30 61.86508 26.45741 23404 ft 268 kts 212°
2026-04-26 07:30 61.84965 26.43516 23465 ft 268 kts 212°
2026-04-26 07:31 61.83421 26.41289 23523 ft 269 kts 212°
2026-04-26 07:31 61.81874 26.39059 23563 ft 270 kts 213°
2026-04-26 07:31 61.80320 26.36818 23608 ft 271 kts 213°
2026-04-26 07:31 61.78762 26.34573 23668 ft 271 kts 213°
2026-04-26 07:32 61.77202 26.32325 23708 ft 272 kts 213°
2026-04-26 07:32 61.75634 26.30067 23748 ft 273 kts 213°
2026-04-26 07:32 61.74087 26.27841 23793 ft 273 kts 213°
2026-04-26 07:32 61.72515 26.25580 23832 ft 274 kts 213°
2026-04-26 07:33 61.70935 26.23308 23864 ft 275 kts 213°
2026-04-26 07:33 61.69357 26.21036 24011 ft 271 kts 213°
2026-04-26 07:33 61.67839 26.18849 24471 ft 258 kts 214°
2026-04-26 07:33 61.66383 26.16754 24904 ft 251 kts 214°
2026-04-26 07:34 61.64949 26.14703 25253 ft 248 kts 214°
2026-04-26 07:34 61.63521 26.12674 25599 ft 247 kts 214°
2026-04-26 07:34 61.62060 26.10605 25632 ft 260 kts 214°
2026-04-26 07:34 61.60540 26.08450 25639 ft 263 kts 214°
2026-04-26 07:35 61.59039 26.06320 25632 ft 258 kts 215°
2026-04-26 07:35 61.57558 26.04217 25629 ft 257 kts 215°
2026-04-26 07:35 61.56080 26.02118 25630 ft 256 kts 215°
2026-04-26 07:35 61.54610 26.00032 25635 ft 255 kts 215°
2026-04-26 07:36 61.53142 25.97952 25622 ft 254 kts 215°
2026-04-26 07:36 61.51679 25.95878 25626 ft 254 kts 215°
2026-04-26 07:36 61.50219 25.93808 25624 ft 254 kts 215°
2026-04-26 07:36 61.48757 25.91734 25629 ft 253 kts 215°
2026-04-26 07:37 61.47298 25.89667 25629 ft 253 kts 215°
2026-04-26 07:37 61.45839 25.87599 25634 ft 254 kts 215°
2026-04-26 07:37 61.44378 25.85529 25627 ft 254 kts 215°
2026-04-26 07:37 61.42917 25.83459 25632 ft 254 kts 215°
2026-04-26 07:38 61.41454 25.81387 25632 ft 254 kts 215°
2026-04-26 07:38 61.39976 25.79291 25362 ft 265 kts 215°
2026-04-26 07:38 61.38429 25.77092 24839 ft 279 kts 214°
2026-04-26 07:38 61.36777 25.74736 24320 ft 287 kts 214°
2026-04-26 07:39 61.35154 25.72411 23810 ft 279 kts 214°
2026-04-26 07:39 61.33602 25.70171 23315 ft 271 kts 213°
2026-04-26 07:39 61.32069 25.67949 22723 ft 265 kts 213°
2026-04-26 07:39 61.30570 25.65771 22124 ft 260 kts 214°
2026-04-26 07:40 61.29080 25.63602 21523 ft 256 kts 214°
2026-04-26 07:40 61.27628 25.61488 20933 ft 253 kts 214°
2026-04-26 07:40 61.26191 25.59397 20337 ft 251 kts 214°
2026-04-26 07:40 61.24765 25.57321 19754 ft 249 kts 214°
2026-04-26 07:41 61.23371 25.55290 19187 ft 247 kts 214°
2026-04-26 07:41 61.21969 25.53244 18642 ft 245 kts 215°
2026-04-26 07:41 61.20584 25.51219 18117 ft 242 kts 215°
2026-04-26 07:41 61.19212 25.49211 17546 ft 240 kts 215°
2026-04-26 07:42 61.17853 25.47217 16953 ft 239 kts 216°
2026-04-26 07:42 61.16496 25.45227 16374 ft 238 kts 216°
2026-04-26 07:42 61.15148 25.43251 15829 ft 237 kts 217°
2026-04-26 07:42 61.13809 25.41290 15298 ft 234 kts 217°
2026-04-26 07:43 61.12484 25.39350 14775 ft 233 kts 218°
2026-04-26 07:43 61.11139 25.37554 14250 ft 229 kts 204°
2026-04-26 07:43 61.09644 25.36512 13752 ft 226 kts 199°
2026-04-26 07:43 61.08151 25.35514 13238 ft 225 kts 200°
2026-04-26 07:44 61.06689 25.34485 12768 ft 221 kts 201°
2026-04-26 07:44 61.05232 25.33450 12266 ft 221 kts 201°
2026-04-26 07:44 61.03779 25.32431 11796 ft 220 kts 201°
2026-04-26 07:44 61.02331 25.31423 11338 ft 220 kts 202°
2026-04-26 07:45 61.00883 25.30413 10890 ft 219 kts 202°
2026-04-26 07:45 60.99437 25.29405 10447 ft 222 kts 202°
2026-04-26 07:45 60.97879 25.28317 10017 ft 248 kts 202°
2026-04-26 07:45 60.96182 25.27137 9663 ft 263 kts 201°
2026-04-26 07:46 60.94403 25.26511 9652 ft 259 kts 180°
2026-04-26 07:46 60.92612 25.26626 9655 ft 256 kts 177°
2026-04-26 07:46 60.90842 25.26770 9654 ft 254 kts 178°
2026-04-26 07:46 60.89079 25.26887 9650 ft 253 kts 178°
2026-04-26 07:47 60.87322 25.26993 9655 ft 252 kts 178°
2026-04-26 07:47 60.85566 25.27107 9654 ft 252 kts 178°
2026-04-26 07:47 60.83813 25.27222 9645 ft 252 kts 178°
2026-04-26 07:47 60.82061 25.27331 9650 ft 251 kts 178°
2026-04-26 07:48 60.80317 25.27440 9646 ft 251 kts 178°
2026-04-26 07:48 60.78593 25.27547 9644 ft 251 kts 178°
2026-04-26 07:48 60.76846 25.27656 9646 ft 251 kts 178°
2026-04-26 07:48 60.75102 25.27765 9645 ft 251 kts 178°
2026-04-26 07:49 60.73355 25.27874 9638 ft 251 kts 178°
2026-04-26 07:49 60.71610 25.27983 9581 ft 253 kts 178°
2026-04-26 07:49 60.69789 25.28096 9162 ft 268 kts 178°
2026-04-26 07:50 60.65946 25.28333 8342 ft 282 kts 178°
2026-04-26 07:50 60.63977 25.28457 7924 ft 285 kts 178°
2026-04-26 07:50 60.61979 25.28587 7413 ft 289 kts 178°
2026-04-26 07:50 60.59956 25.28724 6915 ft 292 kts 178°
2026-04-26 07:51 60.57917 25.28866 6421 ft 294 kts 178°
2026-04-26 07:51 60.55864 25.29013 5961 ft 295 kts 178°
2026-04-26 07:51 60.53853 25.29160 5548 ft 284 kts 178°
2026-04-26 07:51 60.51904 25.29300 5145 ft 277 kts 178°
2026-04-26 07:52 60.49994 25.29438 4744 ft 272 kts 178°
2026-04-26 07:52 60.48124 25.29414 4335 ft 265 kts 191°
2026-04-26 07:52 60.46388 25.28349 3927 ft 258 kts 204°
2026-04-26 07:52 60.44680 25.27338 3667 ft 254 kts 195°
2026-04-26 07:53 60.42956 25.26753 3654 ft 248 kts 190°
2026-04-26 07:53 60.41262 25.26262 3656 ft 243 kts 192°
2026-04-26 07:53 60.39609 25.25699 3651 ft 239 kts 193°
2026-04-26 07:53 60.37982 25.25112 3651 ft 236 kts 193°
2026-04-26 07:54 60.36390 25.24553 3650 ft 234 kts 193°
2026-04-26 07:54 60.34791 25.24003 3646 ft 232 kts 193°
2026-04-26 07:54 60.33204 25.23458 3650 ft 230 kts 193°
2026-04-26 07:54 60.31622 25.22910 3647 ft 230 kts 193°
2026-04-26 07:55 60.30050 25.22366 3644 ft 229 kts 193°
2026-04-26 07:55 60.28482 25.21826 3646 ft 228 kts 193°
2026-04-26 07:55 60.26868 25.21753 3388 ft 239 kts 166°
2026-04-26 07:55 60.25324 25.23015 3122 ft 242 kts 149°
2026-04-26 07:56 60.23813 25.24588 2856 ft 247 kts 148°
2026-04-26 07:56 60.22275 25.26178 2591 ft 250 kts 149°
2026-04-26 07:56 60.20705 25.27756 2325 ft 253 kts 150°
2026-04-26 07:56 60.19136 25.29328 2137 ft 251 kts 150°
2026-04-26 07:57 60.18086 25.30395 2010 ft 249 kts 150°
2026-04-26 07:57 60.15912 25.31218 1981 ft 237 kts 188°
2026-04-26 07:57 60.14849 25.30746 1980 ft 228 kts 206°
2026-04-26 07:57 60.13538 25.29198 1983 ft 211 kts 230°
2026-04-26 07:58 60.12654 25.27055 1982 ft 195 kts 252°
2026-04-26 07:58 60.12187 25.24634 1989 ft 180 kts 270°
2026-04-26 07:58 60.12102 25.22220 1990 ft 169 kts 286°
2026-04-26 07:58 60.12340 25.19991 1985 ft 159 kts 301°
2026-04-26 07:59 60.12851 25.18117 1989 ft 149 kts 316°
2026-04-26 07:59 60.13603 25.16798 1983 ft 141 kts 334°
2026-04-26 07:59 60.14492 25.16041 1998 ft 139 kts 343°
2026-04-26 07:59 60.15328 25.15057 1909 ft 145 kts 326°
2026-04-26 08:00 60.16174 25.13852 1905 ft 150 kts 331°
2026-04-26 08:00 60.17028 25.12742 2107 ft 143 kts 333°
2026-04-26 08:00 60.17893 25.11731 2181 ft 145 kts 335°
2026-04-26 08:00 60.18794 25.10770 2223 ft 149 kts 336°
2026-04-26 08:01 60.19733 25.09812 2248 ft 153 kts 336°
2026-04-26 08:01 60.20668 25.08852 2422 ft 149 kts 336°
2026-04-26 08:01 60.21609 25.07900 2450 ft 154 kts 337°
2026-04-26 08:01 60.22596 25.06965 2324 ft 155 kts 339°
2026-04-26 08:02 60.23510 25.06137 2156 ft 137 kts 338°
2026-04-26 08:02 60.24296 25.05313 1911 ft 116 kts 335°
2026-04-26 08:02 60.24962 25.04570 1632 ft 104 kts 335°
2026-04-26 08:02 60.25555 25.03948 1408 ft 89 kts 339°
2026-04-26 08:03 60.26052 25.03491 1268 ft 65 kts 338°
2026-04-26 08:03 60.26427 25.03083 1176 ft 63 kts 337°
2026-04-26 08:03 60.26807 25.02675 1158 ft 62 kts 335°
2026-04-26 08:03 60.27194 25.02310 1118 ft 65 kts 338°
2026-04-26 08:04 60.27607 25.01901 1060 ft 69 kts 336°
2026-04-26 08:04 60.28053 25.01491 972 ft 71 kts 338°
2026-04-26 08:04 60.28496 25.01072 918 ft 70 kts 337°
2026-04-26 08:04 60.28945 25.00617 794 ft 74 kts 336°
2026-04-26 08:05 60.29426 25.00120 576 ft 81 kts 335°
2026-04-26 08:05 60.29923 24.99619 409 ft 79 kts 333°
2026-04-26 08:05 60.30395 24.99138 253 ft 67 kts 336°
2026-04-26 08:05 60.30753 24.98779 167 ft 53 kts 335°
2026-04-26 08:06 60.31065 24.98466 152 ft 43 kts 335°
2026-04-26 08:06 60.31295 24.98231 155 ft 32 kts 336°
2026-04-26 08:06 60.31430 24.98002 151 ft 25 kts 285°
2026-04-26 08:06 60.31372 24.97706 154 ft 24 kts 222°
2026-04-26 08:07 60.31195 24.97705 159 ft 17 kts 150°
2026-04-26 08:07 60.31072 24.97916 155 ft 31 kts 159°
2026-04-26 08:07 60.30945 24.98026 157 ft 27 kts 144°
2026-04-26 08:07 60.30869 24.98117 156 ft 12 kts 166°
2026-04-26 08:08 60.30850 24.98089 157 ft 0 kts 243°